Location: Tucson
(32.2220°N, 110.9260°W)
Time: 19:12:20
(UTC-07:00)

GENESIS II - Visible Passes

Search period start: 20 April 2018 00:00
Search period end: 30 April 2018 00:00
Orbit: 509 x 523 km, 64.5° (Epoch: 20 April)

Date Brightness Start Highest point End Pass type
(mag) Time Alt. Az. Time Alt. Az. Time Alt. Az.
25 Apr 6.9 21:05:29 10° NNE 21:05:43 10° NNE 21:05:43 10° NNE visible
26 Apr 6.7 20:49:47 10° NNE 20:50:44 12° NE 20:50:44 12° NE visible
26 Apr 7.6 22:25:36 10° NW 22:25:44 11° NW 22:25:44 11° NW visible
27 Apr 6.5 20:34:07 10° NNE 20:35:47 13° NE 20:35:47 13° NE visible
27 Apr 7.2 22:10:02 10° NW 22:10:47 15° NW 22:10:47 15° NW visible
28 Apr 6.4 20:18:26 10° NNE 20:20:20 13° NE 20:20:53 13° ENE visible
28 Apr 6.7 21:54:28 10° NW 21:55:54 20° NW 21:55:54 20° NW visible
29 Apr 6.3 20:02:46 10° NNE 20:04:45 13° NE 20:06:03 12° ENE visible
29 Apr 6.2 21:38:54 10° NW 21:41:04 28° WNW 21:41:04 28° WNW visible
